Location: *
(33.3200°N, 8.3381°W)
Time: 15:47:45
(UTC+00:00)

Cosmos 1741 Rocket - Pass Details

Date: 09 April 2020
Orbit: 762 x 782 km, 74.0° (Epoch: 26 May)

Event Time Altitude Azimuth Distance (km) Brightness Sun altitude
Exits shadow 21:21:07 66° 5° (N) 853 4.2 -28.2°
Drops below altitude 10° 21:25:40 10° 16° (NNE) 2,341 6.7 -29.0°
Sets 21:28:04 0° 17° (NNE) 3,272 7.5 -29.4°
